Starlink 1134

operational
NORAD ID: 45048 Int'l Des: 2020-006 Owner: SPXS Country: US Constellation: starlink
LEOCIRCULAR

About Starlink 1134

Description loading...

Live Position

Loading 3D Globe...

Upcoming Passes

Altitude History

Altitude vs Time

uPlot chart will show altitude changes over time

Two-Line Element Set

1 45048C 20006E 25304.76576389 .00010745 00000+0 39283-3 0 3048
2 45048 53.0378 123.6820 0011969 140.9478 333.6191 15.27459368 17
Epoch: Oct 31, 2025 • Age: 33 hours

Current Status

Altitude 494.5 km
Velocity 7.62 km/s
Sub-Earth Point -36.73°S, 158.81°E
Launch Date Jan 29, 2020
Age 5.7 years
Type internet

Technical Details

Classification Payload
Mass 260.00 kg
Dry Mass 248.00 kg
Total Mass 260.00 kg
Length 0.20 m
Diameter 2.80 m
Span 9.00 m
Shape Box + pan
Manufacturer SPXS
Bus Type Starlink
Phase Status In Orbit
Owner/State SPXS/US

Large Constellations

Loading constellations...